TimeEDT,TemperatureF,Dew PointF,Humidity,Sea Level PressureIn,VisibilityMPH,Wind Direction,Wind SpeedMPH,Gust SpeedMPH,PrecipitationIn,Events,Conditions,WindDirDegrees,DateUTC
12:15 AM,62.6,62.6,100,30.19,4.0,Calm,Calm,-,N/A,,Clear,0,2013-04-17 04:15:00
12:35 AM,60.8,60.8,100,30.19,5.0,Calm,Calm,-,N/A,,Clear,0,2013-04-17 04:35:00
12:55 AM,59.0,59.0,100,30.18,2.0,Calm,Calm,-,N/A,,Clear,0,2013-04-17 04:55:00
1:15 AM,59.0,59.0,100,30.18,5.0,Calm,Calm,-,N/A,,Clear,0,2013-04-17 05:15:00
1:35 AM,59.0,59.0,100,30.18,1.5,Calm,Calm,-,N/A,,Clear,0,2013-04-17 05:35:00
1:55 AM,59.0,59.0,100,30.17,6.0,Calm,Calm,-,N/A,,Clear,0,2013-04-17 05:55:00
2:15 AM,59.0,59.0,100,30.17,5.0,Calm,Calm,-,N/A,,Clear,0,2013-04-17 06:15:00
2:35 AM,57.2,57.2,100,30.17,3.0,Calm,Calm,-,N/A,,Clear,0,2013-04-17 06:35:00
2:55 AM,59.0,59.0,100,30.17,4.0,Calm,Calm,-,N/A,,Clear,0,2013-04-17 06:55:00
3:15 AM,57.2,57.2,100,30.17,6.0,Calm,Calm,-,N/A,,Clear,0,2013-04-17 07:15:00
3:35 AM,57.2,57.2,100,30.16,2.0,Calm,Calm,-,N/A,,Clear,0,2013-04-17 07:35:00
3:55 AM,57.2,57.2,100,30.16,5.0,Calm,Calm,-,N/A,,Clear,0,2013-04-17 07:55:00
4:15 AM,57.2,57.2,100,30.16,7.0,Calm,Calm,-,N/A,,Partly Cloudy,0,2013-04-17 08:15:00
4:35 AM,57.2,57.2,100,30.16,3.0,Calm,Calm,-,N/A,,Partly Cloudy,0,2013-04-17 08:35:00
4:55 AM,57.2,57.2,100,30.16,5.0,Calm,Calm,-,N/A,,Clear,0,2013-04-17 08:55:00
5:15 AM,57.2,57.2,100,30.16,0.8,Calm,Calm,-,N/A,,Mist,0,2013-04-17 09:15:00
5:35 AM,59.0,59.0,100,30.16,4.0,Calm,Calm,-,N/A,,Clear,0,2013-04-17 09:35:00
5:55 AM,57.2,57.2,100,30.17,1.8,Calm,Calm,-,N/A,,Clear,0,2013-04-17 09:55:00
6:15 AM,57.2,57.2,100,30.17,3.0,Calm,Calm,-,N/A,,Clear,0,2013-04-17 10:15:00
6:35 AM,59.0,59.0,100,30.18,7.0,Calm,Calm,-,N/A,,Partly Cloudy,0,2013-04-17 10:35:00
6:50 AM,59.0,59.0,100,30.19,2.0,Calm,Calm,-,N/A,,Mostly Cloudy,0,2013-04-17 10:50:00
7:50 AM,62.6,62.6,100,30.20,1.5,North,4.6,-,N/A,,Overcast,10,2013-04-17 11:50:00
8:10 AM,62.6,62.6,100,30.20,4.0,NNE,5.8,-,N/A,,Mostly Cloudy,20,2013-04-17 12:10:00
8:30 AM,64.4,64.4,100,30.19,7.0,NNE,4.6,-,N/A,,Scattered Clouds,20,2013-04-17 12:30:00
8:50 AM,66.2,66.2,100,30.19,7.0,NNE,5.8,-,N/A,,Scattered Clouds,20,2013-04-17 12:50:00
9:50 AM,69.8,66.2,88,30.19,7.0,ENE,5.8,-,N/A,,Scattered Clouds,60,2013-04-17 13:50:00
10:50 AM,73.4,68.0,83,30.19,7.0,ENE,4.6,-,N/A,,Scattered Clouds,60,2013-04-17 14:50:00
11:50 AM,75.2,66.2,73,30.19,7.0,ENE,8.1,-,N/A,,Mostly Cloudy,60,2013-04-17 15:50:00
12:50 PM,75.2,66.2,73,30.18,7.0,ENE,8.1,-,N/A,,Mostly Cloudy,60,2013-04-17 16:50:00
1:50 PM,75.2,66.2,73,30.16,10.0,ENE,6.9,-,N/A,,Mostly Cloudy,60,2013-04-17 17:50:00
2:50 PM,75.2,66.2,73,30.15,10.0,NE,8.1,-,N/A,,Scattered Clouds,50,2013-04-17 18:50:00
3:50 PM,77.0,64.4,65,30.13,10.0,East,11.5,-,N/A,,Scattered Clouds,90,2013-04-17 19:50:00
5:50 PM,75.2,64.4,69,30.12,10.0,ENE,8.1,-,N/A,,Scattered Clouds,60,2013-04-17 21:50:00
6:50 PM,73.4,64.4,73,30.12,10.0,ENE,4.6,-,N/A,,Scattered Clouds,60,2013-04-17 22:50:00
7:50 PM,71.6,64.4,78,30.12,10.0,ENE,4.6,-,N/A,,Scattered Clouds,60,2013-04-17 23:50:00
8:15 PM,71.6,64.4,78,30.13,10.0,Calm,Calm,-,N/A,,Clear,0,2013-04-18 00:15:00
8:35 PM,69.8,64.4,83,30.13,10.0,Calm,Calm,-,N/A,,Clear,0,2013-04-18 00:35:00
8:55 PM,69.8,64.4,83,30.13,10.0,Calm,Calm,-,N/A,,Clear,0,2013-04-18 00:55:00
9:15 PM,68.0,64.4,88,30.14,10.0,Calm,Calm,-,N/A,,Clear,0,2013-04-18 01:15:00
9:35 PM,68.0,66.2,94,30.14,10.0,Calm,Calm,-,N/A,,Clear,0,2013-04-18 01:35:00
9:55 PM,68.0,66.2,94,30.14,10.0,Calm,Calm,-,N/A,,Clear,0,2013-04-18 01:55:00
10:15 PM,68.0,66.2,94,30.14,10.0,Calm,Calm,-,N/A,,Clear,0,2013-04-18 02:15:00
10:35 PM,66.2,66.2,100,30.14,10.0,Calm,Calm,-,N/A,,Clear,0,2013-04-18 02:35:00
10:55 PM,66.2,64.4,94,30.13,10.0,Calm,Calm,-,N/A,,Clear,0,2013-04-18 02:55:00
11:15 PM,64.4,64.4,100,30.13,7.0,Calm,Calm,-,N/A,,Clear,0,2013-04-18 03:15:00
11:35 PM,64.4,64.4,100,30.13,7.0,Calm,Calm,-,N/A,,Clear,0,2013-04-18 03:35:00